Tracking 19795 objects as of 18-Jul-2019
HD Live streaming from Space Station
objects crossing your sky now

COSMOS 1655

Track COSMOS 1655 now!
10-day predictions
COSMOS 1655 is classified as:


NORAD ID: 15751
Int'l Code: 1985-041A
Perigee: 982.0 km
Apogee: 1,019.2 km
Inclination: 83.0 °
Period: 105.0 minutes
Semi major axis: 7371 km
RCS: 1.6706 m2 (large)
Launch date: May 30, 1985
Source: Commonwealth of Independent States (former USSR) (CIS)
Launch site: PLESETSK MISSILE AND SPACE COMPLEX (PKMTR)
aabbcc
Your satellite tracking list
Your tracking list is empty




NASA's NSSDC Master Catalog

Two Line Element Set (TLE):
1 15751U 85041A   19199.15846139  .00000024  00000-0  10147-4 0  9996
2 15751  82.9503 126.0031 0025289 266.1629 209.2997 13.71705305708633
Source of the keplerian elements: AFSPC